User: anonymous   Login
Location: *
(34.8620°S, 39.3380°E)
Time: 22:48:13
(UTC+00:00)
Language:

Cosmos 1943 Rocket - Orbit

View from above orbital plane
View from above orbital plane
View from above satellite
View from above satellite

Ground track
Ground track

The orbit data is extracted from the following two-line orbital elements,

1 19120U 88039B   21300.44034262 -.00000140  00000-0 -43511-4 0  9997
2 19120  71.0156 198.3539 0024315 265.6297  94.2050 14.19226383732163
Epoch (UTC): 27 October 2021 10:34:05
Eccentricity: 0.0024315
inclination: 71.0156°
perigee height: 810 km
apogee height: 845 km
right ascension of ascending node: 198.3539°
argument of perigee: 265.6297°
revolutions per day: 14.19226383
mean anomaly at epoch: 94.2050°
orbit number at epoch: 73216

The dashed part of the orbit path shows where the satellite is in the earth's shadow,  

DLR